Probability
0 1 0 0 0 0 0 0 0 0 0 0 0 0 0 0 0 0 1 4 7 9 8 5 3 5 6 7 7 7 10 12 12 11 8 4 2 1 1 2 3 2 0
1 1 0 0 0 0 0 0 0 0 0 0 0 0 0 0 0 0 0 1 3 4 5 4 4 5 6 8 8 8 11 14 15 14 9 5 3 3 2 3 4 3 2
1 1 0 0 0 0 0 0 0 0 0 0 0 0 0 0 0 0 0 0 1 1 1 2 2 4 6 8 8 8 11 14 15 13 8 4 4 3 2 2 4 4 3
2 1 1 1 0 0 0 0 0 0 0 0 0 0 0 0 0 0 0 0 1 1 1 1 1 1 4 6 6 6 9 12 12 10 6 4 5 4 2 1 2 3 3
3 2 2 2 1 1 0 0 0 0 0 0 0 0 0 0 0 0 0 0 1 1 2 2 1 0 2 3 3 3 5 8 10 9 7 5 6 6 3 2 2 2 3
6 5 3 3 2 2 1 1 1 0 0 0 0 0 0 0 0 0 0 0 0 0 1 2 1 0 1 2 2 2 3 6 8 8 6 4 5 6 5 5 5 4 3
7 6 4 3 4 3 2 2 2 1 0 0 0 0 0 0 0 0 0 0 0 0 1 2 1 1 0 1 3 3 3 4 5 5 4 3 3 3 4 5 6 5 5
5 5 4 4 5 5 3 3 3 1 0 0 0 0 0 0 0 0 0 0 0 0 1 2 1 1 0 0 1 2 2 3 3 3 3 3 2 1 1 2 3 4 5
4 4 4 4 4 5 4 3 3 2 0 0 0 0 0 0 0 0 0 0 0 0 1 2 2 1 0 0 0 1 1 1 1 2 3 2 2 1 0 0 1 2 3
2 3 3 3 3 4 3 3 2 1 0 0 0 0 0 0 0 0 0 0 0 0 0 1 1 1 0 0 0 0 0 0 1 2 3 3 1 0 0 0 0 0 1
1 1 2 3 3 3 3 1 1 0 0 0 0 0 0 0 0 0 0 0 0 0 0 0 0 0 0 0 0 0 0 0 1 1 2 3 1 0 0 0 0 0 0
0 0 1 2 2 2 2 1 0 0 0 0 0 0 0 0 0 0 0 0 0 0 0 0 0 0 0 0 0 0 0 0 0 0 1 1 0 0 0 0 0 0 0
0 0 0 1 1 1 1 1 0 0 0 0 0 0 0 0 0 0 0 0 0 0 0 0 0 0 0 0 0 0 0 0 0 0 0 0 0 0 0 0 0 0 0
0 0 0 0 0 0 1 1 0 0 0 0 0 0 0 0 0 0 0 0 0 0 0 0 0 0 0 0 0 0 0 0 0 0 0 0 0 0 0 0 0 0 0
0 0 0 0 0 0 1 1 0 0 0 0 0 0 0 0 0 0 0 0 0 0 0 0 0 0 0 0 0 0 0 0 0 0 0 0 0 0 0 0 0 0 0
0 0 0 0 0 0 0 0 0 0 0 0 0 0 0 0 0 0 0 0 0 0 0 0 0 0 0 0 0 0 0 0 0 0 0 0 0 0 0 0 0 0 0
0 0 0 0 0 0 0 0 0 0 0 0 0 0 0 0 0 0 0 0 0 0 0 0 0 0 0 0 0 0 0 0 0 0 0 0 0 0 0 0 0 0 0
0 0 0 0 0 0 0 0 0 0 0 0 0 0 0 0 0 0 0 0 0 0 0 0 0 0 0 0 0 0 0 0 0 0 0 0 0 0 0 0 0 0 0
0 0 0 0 0 0 0 0 0 0 0 0 0 0 0 0 0 0 0 0 0 0 0 0 0 0 0 0 0 0 0 0 0 0 0 0 0 0 0 0 0 0 0
0 0 0 0 0 0 0 0 0 0 0 0 0 0 0 0 0 0 0 0 0 0 0 0 0 0 0 0 0 0 0 0 0 0 0 0 0 0 0 0 0 0 0
0 0 0 0 0 0 0 0 0 0 0 0 0 0 0 0 0 0 0 0 0 0 0 0 0 0 0 0 0 0 0 0 0 0 0 0 0 0 0 0 0 0 0
0 0 0 0 0 0 0 0 0 0 0 0 0 0 0 0 0 0 0 0 0 0 0 0 0 0 0 0 0 0 0 0 0 0 0 0 0 0 0 0 0 0 0
0 0 0 0 0 0 0 0 0 0 0 0 0 0 0 0 0 0 0 0 0 0 0 0 0 0 0 0 0 0 0 0 0 0 0 0 0 0 0 0 0 0 0
0 0 0 0 0 0 0 0 0 0 0 0 0 0 0 0 0 0 0 0 0 0 0 0 0 0 0 0 0 0 0 0 0 0 0 0 0 0 0 0 0 0 0
0 0 0 0 0 0 0 0 0 0 0 0 0 0 0 0 0 0 0 0 0 0 0 0 0 0 0 0 0 0 0 0 0 0 0 0 0 0 0 0 0 0 0
0 0 0 0 0 0 0 0 0 0 0 0 0 0 0 0 0 0 0 0 0 0 0 0 0 0 0 0 0 0 0 0 0 0 0 0 0 0 0 0 0 0 0
Wind_Speed
1 0 0 0 1 1 1 1 2 2 2 2 2 1 1 1 1 1 1 5 5 4 5 6 7 7 8 9 9 9 10 10 11 11 11 11 11 11 10 10 10 10 10
1 1 0 0 1 1 1 1 1 1 1 1 2 2 1 0 1 1 1 2 4 5 5 5 5 5 6 6 7 7 8 9 9 10 11 11 11 11 11 11 10 10 10
2 1 1 1 1 1 1 1 2 1 1 1 2 2 1 1 0 1 1 1 1 3 4 4 4 4 5 6 6 6 6 7 8 8 9 10 10 10 10 11 10 10 10
3 2 2 1 2 2 2 1 2 2 2 2 2 2 2 1 1 1 0 0 1 1 2 3 4 4 5 5 4 4 4 5 6 6 7 8 10 10 10 10 10 11 11
3 2 2 2 2 2 2 2 1 1 1 2 2 2 1 1 1 1 1 1 0 0 0 1 2 3 3 3 3 3 3 4 4 5 5 6 7 8 10 11 11 10 10
3 2 2 2 3 2 2 2 2 1 1 1 2 2 2 2 1 1 1 1 1 1 1 1 1 1 2 1 1 1 2 2 3 3 3 3 4 6 8 9 10 10 10
3 3 2 3 3 2 2 3 1 2 2 1 2 2 3 3 2 2 2 2 2 2 2 2 1 1 1 2 1 1 0 1 1 0 1 2 3 4 5 7 8 9 10
3 3 3 2 2 2 3 3 2 1 1 2 1 1 2 3 3 3 2 2 3 2 2 2 1 1 1 1 1 1 1 2 1 1 1 1 2 3 5 6 7 9 10
3 3 3 2 2 2 2 2 2 2 1 1 1 2 1 1 2 2 3 3 3 3 2 2 2 1 1 1 1 1 2 2 1 1 2 1 1 2 4 6 6 7 8
3 3 3 2 2 2 2 2 2 1 1 1 1 0 1 2 1 1 2 3 3 3 3 2 2 2 2 1 1 2 3 2 2 2 2 2 1 2 3 3 5 6 7
3 3 3 2 2 2 2 2 2 2 0 0 0 1 1 1 1 1 2 2 3 2 2 2 1 1 1 1 0 2 2 2 2 2 2 2 2 2 2 3 3 3 5
2 3 3 2 2 1 2 2 1 2 1 1 0 0 1 1 1 1 1 1 2 2 2 2 2 1 1 0 0 2 2 2 2 2 1 2 2 2 3 3 2 2 3
2 3 3 2 2 1 1 2 2 2 1 1 1 1 0 1 1 1 1 1 1 1 2 2 2 1 2 1 1 1 1 1 1 1 1 1 1 1 2 2 2 2 2
1 2 2 3 3 2 2 2 2 2 1 1 2 1 1 1 1 1 2 2 0 1 1 2 1 1 1 1 1 1 1 1 1 1 1 0 0 0 1 1 2 2 2
1 2 2 3 3 3 3 3 2 2 2 2 2 1 1 1 0 0 1 2 3 1 2 2 1 2 1 1 1 0 0 1 1 1 1 1 1 1 1 1 1 2 2
2 2 2 2 3 3 3 3 2 2 3 2 1 2 2 1 1 1 0 0 1 3 2 2 2 1 1 1 1 0 1 2 2 2 2 2 2 1 1 1 2 2 2
2 2 2 2 3 3 3 3 3 3 3 3 3 2 2 1 1 1 1 0 0 1 2 1 1 1 1 1 2 1 1 1 1 3 3 3 3 3 3 3 2 2 2
1 2 2 2 3 3 3 3 2 3 2 2 3 2 2 2 2 1 1 1 0 0 2 1 1 1 1 2 1 1 1 1 1 2 4 4 4 3 3 3 3 3 3
2 2 2 2 2 2 3 3 2 2 2 2 2 2 2 2 2 1 1 1 0 0 1 2 1 1 1 1 1 1 1 1 1 1 2 3 4 4 4 4 4 4 4
1 1 2 1 1 2 2 3 3 3 3 3 2 2 1 1 1 1 1 0 0 0 0 1 1 1 1 1 0 1 1 1 1 1 1 2 2 3 4 4 5 5 6
1 1 2 2 2 2 2 2 3 3 3 3 3 2 2 2 1 1 1 1 0 0 0 0 0 0 1 1 1 1 1 1 1 1 0 1 1 1 2 4 5 6 7
2 2 2 1 2 2 3 3 2 2 2 2 2 3 2 3 4 4 2 1 2 2 1 1 1 2 2 2 1 1 1 0 1 1 1 1 1 1 2 2 4 6 7
1 2 1 1 2 2 3 4 3 2 2 1 2 2 2 3 3 2 3 3 2 2 3 3 3 3 3 3 2 1 2 2 2 2 1 1 1 2 3 3 6 7 7
0 0 1 1 1 3 4 4 4 2 2 2 2 1 1 2 3 2 2 2 3 2 3 2 4 4 4 4 4 3 2 1 2 1 2 1 2 2 3 2 5 6 7
0 1 1 1 1 3 4 4 3 1 2 3 3 2 1 2 3 2 1 2 3 4 3 2 3 4 5 5 4 2 1 1 1 2 1 2 1 1 2 3 4 6 6
1 1 2 2 2 3 4 4 2 1 1 2 3 3 3 3 3 2 1 1 2 3 4 5 4 3 2 2 3 4 4 3 1 2 2 2 1 0 2 3 2 2 3
Wind_Direction
115 117 139 82 300 305 299 297 296 298 315 324 322 316 279 248 193 193 231 199 184 198 223 225 214 211 214 213 211 212 213 210 209 205 203 202 200 197 194 193 191 188 188
92 91 35 1 341 326 309 291 296 298 322 333 341 341 310 184 166 184 226 216 202 210 229 229 220 217 217 215 213 213 212 210 211 208 206 204 204 200 196 196 194 191 188
67 81 58 18 342 340 353 356 353 10 2 4 350 341 343 10 230 222 202 225 233 226 230 232 229 229 237 234 228 226 222 216 213 212 211 207 205 202 199 197 196 193 189
60 60 50 21 4 14 16 21 26 20 5 360 342 329 344 349 339 314 286 212 248 258 246 241 240 238 243 240 234 233 221 209 212 217 215 209 204 201 201 199 196 193 188
57 64 47 25 26 30 15 7 23 18 357 348 332 336 348 356 352 15 33 31 12 35 335 306 268 257 258 230 215 224 224 220 220 221 217 209 204 201 203 199 193 189 185
56 54 51 31 34 32 8 0 359 360 348 332 345 2 353 343 8 16 18 27 31 47 46 32 1 329 326 318 217 220 235 232 223 218 205 204 201 197 200 197 193 188 185
59 59 48 35 38 36 7 359 6 7 0 9 37 6 357 4 22 16 24 44 39 26 40 45 29 17 360 23 23 45 48 76 65 71 224 203 194 183 184 188 190 187 186
46 62 59 42 33 33 15 9 23 25 350 16 70 52 356 350 2 8 16 36 25 21 22 14 22 39 26 12 3 41 66 70 60 33 40 121 181 187 181 174 178 183 184
48 54 54 49 34 47 24 0 13 52 352 332 49 122 128 258 315 334 1 17 16 20 7 355 7 16 34 23 357 32 82 80 74 44 41 56 162 167 178 180 183 183 185
33 47 49 46 36 37 28 354 10 9 77 342 325 350 170 172 167 310 331 355 5 12 2 352 355 358 19 27 51 68 72 59 70 68 58 61 120 153 158 165 180 183 181
25 29 32 31 26 21 11 5 358 2 28 102 312 310 355 35 129 166 285 322 346 344 343 341 356 352 354 34 64 81 80 69 66 57 68 89 105 121 130 139 145 169 188
11 9 16 13 7 7 357 356 353 353 349 357 324 219 179 175 212 174 223 283 305 312 334 357 6 352 342 354 118 87 84 80 65 62 71 95 122 138 150 152 156 173 196
6 351 3 353 355 359 360 10 16 354 349 0 322 287 229 215 195 180 173 227 290 302 329 343 343 352 359 3 355 55 97 111 89 88 90 88 109 137 147 162 175 186 213
295 323 3 5 3 6 10 19 23 355 2 352 339 330 295 269 179 179 180 168 225 314 320 303 324 338 334 335 357 12 56 107 95 80 87 82 132 186 187 199 210 215 223
322 353 3 7 0 6 12 25 21 348 348 344 338 348 330 299 287 206 178 172 166 207 271 284 306 311 316 322 315 37 283 247 201 215 225 224 225 224 191 202 202 191 194
354 2 5 4 4 9 10 17 4 348 1 349 338 3 3 338 351 7 139 192 168 172 212 251 259 274 297 306 299 312 263 252 235 226 220 210 200 183 184 183 178 177 194
356 357 353 359 7 10 7 13 3 6 12 358 352 13 3 5 14 5 19 24 78 157 188 266 280 286 296 279 309 319 291 263 256 231 220 214 208 206 212 212 203 204 214
354 2 15 20 18 19 17 17 7 10 13 4 356 14 356 11 13 359 20 17 352 187 167 193 282 290 273 258 271 286 287 254 245 235 224 220 216 214 217 221 219 219 223
18 22 40 43 28 18 13 8 8 5 7 2 358 11 353 25 7 353 19 28 3 0 149 170 242 275 288 270 311 303 303 306 260 234 225 228 226 224 226 231 235 235 238
40 21 28 33 24 12 14 13 17 17 10 8 6 4 356 20 344 326 2 338 358 27 112 163 221 273 290 281 224 275 311 305 286 276 256 239 232 236 234 234 236 240 245
40 39 45 25 10 15 19 16 6 10 6 2 360 0 358 353 338 301 249 233 172 160 178 181 232 296 289 260 242 242 246 300 307 269 289 286 259 258 254 250 245 247 247
28 43 43 29 15 11 14 19 15 357 352 356 347 345 346 355 353 352 338 295 217 193 206 205 217 232 248 234 227 214 189 36 294 276 148 281 200 252 260 247 254 251 250
41 48 21 23 7 340 354 5 8 9 357 337 318 328 342 349 353 351 344 340 322 263 220 198 213 235 229 220 195 211 210 210 233 236 140 270 271 259 259 255 251 250 249
30 338 314 312 326 326 345 358 0 14 3 344 332 313 327 330 334 342 342 341 330 315 269 231 225 239 234 220 198 196 196 222 289 273 159 215 266 263 267 262 256 248 249
289 269 280 285 304 313 330 340 351 12 8 347 340 342 349 337 327 347 11 350 341 331 332 305 272 259 248 236 200 154 151 119 330 294 208 179 245 278 284 272 264 252 249
238 261 284 283 284 296 316 336 351 39 2 334 335 334 333 329 325 342 23 8 339 317 331 341 345 337 304 261 215 183 178 165 181 259 242 179 226 236 305 288 277 266 258